Location: Newark
(4.6381°N, 74.0644°W)
Time: 08:49:56
(UTC+00:00)

LightSail 2 - Visible Passes

Search period start: 15 October 2019 00:00
Search period end: 25 October 2019 00:00
Orbit: 707 x 723 km, 24.0° (Epoch: 14 October)

Date Brightness Start Highest point End Pass type
(mag) Time Alt. Az. Time Alt. Az. Time Alt. Az.
19 Oct 7.5 00:28:44 10° NNW 00:29:29 12° N 00:29:29 12° N visible
19 Oct 7.3 23:31:57 10° N 23:33:37 11° NNE 23:35:18 10° NNE visible
21 Oct 7.0 00:18:14 10° NNW 00:20:41 19° N 00:20:41 19° N visible
21 Oct 7.0 23:21:08 10° NNW 23:24:20 16° NNE 23:26:52 12° NE visible
22 Oct 7.8 01:05:19 10° NW 01:05:53 13° NW 01:05:53 13° NW visible
23 Oct 6.1 00:07:57 10° NW 00:12:08 33° N 00:12:08 33° N visible
23 Oct 6.4 23:10:41 10° NW 23:14:53 25° NNE 23:18:28 13° ENE visible
24 Oct 7.1 00:55:26 10° WNW 00:57:29 24° WNW 00:57:29 24° WNW visible
